TimeCDT,TemperatureF,Dew PointF,Humidity,Sea Level PressureIn,VisibilityMPH,Wind Direction,Wind SpeedMPH,Gust SpeedMPH,PrecipitationIn,Events,Conditions,WindDirDegrees,DateUTC
12:53 AM,70.0,66.9,90,29.96,10.0,NW,3.5,-,N/A,,Scattered Clouds,320,2012-10-07 05:53:00
1:53 AM,69.1,66.0,90,29.96,10.0,Calm,Calm,-,N/A,,Clear,0,2012-10-07 06:53:00
2:53 AM,68.0,64.0,87,29.96,9.0,Calm,Calm,-,N/A,,Clear,0,2012-10-07 07:53:00
3:53 AM,66.9,64.0,90,29.96,8.0,Calm,Calm,-,N/A,,Clear,0,2012-10-07 08:53:00
4:53 AM,66.9,63.0,87,29.97,7.0,Calm,Calm,-,N/A,,Clear,0,2012-10-07 09:53:00
5:53 AM,66.0,63.0,90,29.99,6.0,NNW,4.6,-,N/A,,Clear,330,2012-10-07 10:53:00
6:53 AM,64.9,63.0,93,29.99,5.0,Calm,Calm,-,N/A,,Clear,0,2012-10-07 11:53:00
7:51 AM,66.2,64.4,94,30.02,6.0,Calm,Calm,-,N/A,,Scattered Clouds,0,2012-10-07 12:51:00
7:53 AM,66.9,63.0,87,30.02,6.0,NE,3.5,-,N/A,,Scattered Clouds,50,2012-10-07 12:53:00
8:01 AM,66.2,64.4,94,30.02,6.0,Calm,Calm,-,N/A,,Mostly Cloudy,0,2012-10-07 13:01:00
8:53 AM,68.0,64.0,87,30.03,5.0,NNW,4.6,-,N/A,,Overcast,340,2012-10-07 13:53:00
9:20 AM,71.6,64.4,78,30.03,7.0,Variable,5.8,-,N/A,,Partly Cloudy,0,2012-10-07 14:20:00
9:53 AM,73.9,64.9,73,30.04,10.0,NNW,6.9,-,N/A,,Clear,330,2012-10-07 14:53:00
10:53 AM,78.1,64.9,64,30.03,10.0,Variable,4.6,-,N/A,,Clear,0,2012-10-07 15:53:00
11:53 AM,81.0,64.9,58,30.02,10.0,North,9.2,-,0.01,,Clear,360,2012-10-07 16:53:00
12:53 PM,81.0,64.9,58,30.01,10.0,NNW,12.7,-,N/A,,Partly Cloudy,330,2012-10-07 17:53:00
1:53 PM,81.0,64.0,56,29.99,10.0,NNW,9.2,-,N/A,,Clear,340,2012-10-07 18:53:00
2:53 PM,82.0,63.0,52,29.97,10.0,North,9.2,-,N/A,,Clear,10,2012-10-07 19:53:00
3:53 PM,82.0,63.0,52,29.97,10.0,North,6.9,-,N/A,,Clear,350,2012-10-07 20:53:00
4:53 PM,81.0,63.0,54,29.96,10.0,NNW,6.9,-,N/A,,Clear,330,2012-10-07 21:53:00
5:53 PM,78.1,63.0,60,29.97,10.0,North,4.6,-,N/A,,Clear,350,2012-10-07 22:53:00
6:53 PM,73.9,64.0,71,29.99,10.0,North,3.5,-,N/A,,Clear,350,2012-10-07 23:53:00
7:53 PM,72.0,64.0,76,30.01,10.0,NNW,5.8,-,N/A,,Clear,340,2012-10-08 00:53:00
8:53 PM,70.0,63.0,78,30.02,10.0,North,5.8,-,N/A,,Clear,350,2012-10-08 01:53:00
9:53 PM,68.0,62.1,81,30.04,10.0,North,4.6,-,N/A,,Clear,350,2012-10-08 02:53:00
10:53 PM,66.0,61.0,84,30.03,10.0,NNW,4.6,-,N/A,,Clear,340,2012-10-08 03:53:00
11:53 PM,64.0,59.0,84,30.03,10.0,North,5.8,-,N/A,,Clear,350,2012-10-08 04:53:00